QPF
0.00 0.00 0.00 0.00 0.00 0.00 0.00 0.00 0.00 0.00 0.00 0.00 0.00 0.00 0.00 0.00 0.01 0.01 0.00 0.00 0.02 0.04 0.01 0.00 0.00 0.01 0.05 0.04 0.05 0.02 0.03 0.01 0.01 0.01 0.02 0.02 0.05 0.06 0.05 0.03 0.02 0.02 0.01 0.02 0.04 0.04 0.01 0.00 0.00 0.01 0.02 0.03 0.01 0.01
0.00 0.00 0.00 0.00 0.00 0.00 0.00 0.00 0.00 0.00 0.00 0.00 0.00 0.00 0.00 0.00 0.00 0.01 0.00 0.00 0.01 0.03 0.01 0.00 0.00 0.00 0.00 0.00 0.06 0.08 0.03 0.01 0.03 0.04 0.03 0.03 0.01 0.01 0.01 0.01 0.01 0.01 0.03 0.04 0.06 0.04 0.04 0.02 0.02 0.03 0.02 0.01 0.01 0.01
0.00 0.00 0.00 0.00 0.00 0.00 0.00 0.00 0.00 0.00 0.00 0.00 0.00 0.00 0.00 0.00 0.00 0.01 0.01 0.00 0.01 0.02 0.02 0.00 0.00 0.00 0.00 0.00 0.01 0.09 0.01 0.01 0.02 0.06 0.08 0.04 0.02 0.00 0.00 0.00 0.00 0.01 0.01 0.06 0.08 0.05 0.03 0.03 0.03 0.02 0.01 0.01 0.01 0.00
0.00 0.00 0.00 0.00 0.00 0.00 0.00 0.00 0.00 0.00 0.00 0.00 0.00 0.00 0.00 0.01 0.00 0.00 0.00 0.00 0.01 0.05 0.05 0.00 0.00 0.00 0.00 0.00 0.00 0.00 0.00 0.00 0.02 0.03 0.06 0.05 0.02 0.02 0.01 0.02 0.04 0.03 0.02 0.03 0.05 0.03 0.01 0.01 0.01 0.01 0.01 0.00 0.00 0.00
0.00 0.00 0.00 0.00 0.00 0.00 0.00 0.00 0.00 0.00 0.00 0.00 0.00 0.00 0.00 0.01 0.01 0.00 0.00 0.00 0.01 0.05 0.06 0.00 0.00 0.00 0.00 0.00 0.00 0.00 0.00 0.00 0.00 0.01 0.02 0.01 0.01 0.04 0.03 0.04 0.02 0.01 0.01 0.01 0.01 0.02 0.02 0.01 0.02 0.01 0.00 0.00 0.00 0.00
0.00 0.00 0.00 0.00 0.00 0.00 0.00 0.00 0.00 0.00 0.00 0.00 0.00 0.00 0.00 0.01 0.01 0.01 0.00 0.00 0.00 0.01 0.02 0.00 0.00 0.00 0.00 0.00 0.00 0.00 0.00 0.00 0.00 0.01 0.01 0.02 0.08 0.10 0.08 0.03 0.02 0.02 0.03 0.03 0.03 0.03 0.03 0.01 0.00 0.00 0.00 0.00 0.00 0.00
0.00 0.00 0.00 0.00 0.00 0.00 0.00 0.00 0.00 0.00 0.00 0.00 0.00 0.00 0.00 0.00 0.00 0.00 0.01 0.01 0.01 0.01 0.01 0.00 0.00 0.00 0.00 0.00 0.00 0.00 0.00 0.00 0.01 0.01 0.01 0.04 0.02 0.02 0.03 0.02 0.01 0.01 0.01 0.01 0.00 0.00 0.00 0.00 0.00 0.00 0.00 0.00 0.00 0.00
0.00 0.00 0.00 0.00 0.00 0.00 0.00 0.00 0.00 0.00 0.00 0.00 0.00 0.00 0.00 0.00 0.00 0.00 0.00 0.00 0.00 0.00 0.00 0.00 0.00 0.00 0.00 0.00 0.00 0.00 0.00 0.00 0.01 0.01 0.02 0.01 0.00 0.00 0.00 0.01 0.01 0.00 0.00 0.00 0.00 0.00 0.01 0.01 0.00 0.00 0.00 0.00 0.00 0.00
0.00 0.00 0.00 0.00 0.00 0.00 0.00 0.00 0.00 0.00 0.00 0.00 0.00 0.00 0.00 0.00 0.00 0.00 0.00 0.00 0.00 0.00 0.00 0.00 0.00 0.00 0.00 0.00 0.00 0.00 0.00 0.00 0.00 0.01 0.01 0.00 0.00 0.00 0.00 0.00 0.00 0.01 0.01 0.01 0.01 0.01 0.01 0.01 0.01 0.01 0.01 0.01 0.01 0.01
0.00 0.00 0.00 0.00 0.00 0.00 0.00 0.00 0.00 0.00 0.00 0.00 0.00 0.00 0.00 0.00 0.00 0.00 0.00 0.00 0.00 0.00 0.00 0.00 0.00 0.00 0.00 0.00 0.00 0.00 0.00 0.00 0.00 0.01 0.00 0.00 0.00 0.00 0.00 0.00 0.01 0.01 0.01 0.01 0.01 0.01 0.01 0.01 0.01 0.01 0.02 0.02 0.02 0.02
0.00 0.00 0.00 0.00 0.00 0.00 0.00 0.00 0.00 0.00 0.00 0.00 0.00 0.00 0.00 0.00 0.00 0.00 0.00 0.00 0.00 0.00 0.00 0.00 0.00 0.00 0.00 0.00 0.00 0.00 0.00 0.00 0.00 0.00 0.00 0.00 0.00 0.00 0.00 0.00 0.00 0.00 0.01 0.01 0.01 0.01 0.01 0.01 0.01 0.01 0.01 0.01 0.01 0.01
0.00 0.00 0.00 0.00 0.00 0.00 0.00 0.00 0.00 0.00 0.00 0.00 0.00 0.00 0.00 0.00 0.00 0.00 0.00 0.00 0.00 0.00 0.00 0.00 0.00 0.00 0.00 0.01 0.01 0.00 0.00 0.00 0.00 0.00 0.00 0.00 0.00 0.00 0.00 0.00 0.00 0.00 0.00 0.00 0.00 0.00 0.00 0.00 0.00 0.00 0.00 0.00 0.00 0.00
0.00 0.00 0.00 0.00 0.00 0.00 0.00 0.00 0.00 0.00 0.00 0.00 0.00 0.00 0.00 0.00 0.00 0.00 0.00 0.00 0.00 0.00 0.00 0.00 0.00 0.00 0.01 0.01 0.01 0.01 0.01 0.00 0.00 0.00 0.00 0.00 0.00 0.00 0.00 0.00 0.00 0.00 0.00 0.00 0.00 0.00 0.00 0.00 0.00 0.00 0.00 0.00 0.00 0.00
0.00 0.00 0.00 0.00 0.00 0.00 0.00 0.00 0.00 0.00 0.00 0.00 0.00 0.00 0.00 0.00 0.00 0.00 0.00 0.00 0.00 0.00 0.00 0.00 0.00 0.00 0.01 0.02 0.01 0.01 0.01 0.01 0.01 0.00 0.00 0.00 0.00 0.00 0.00 0.00 0.00 0.00 0.00 0.00 0.00 0.00 0.00 0.00 0.00 0.00 0.00 0.00 0.00 0.00
0.00 0.00 0.00 0.00 0.00 0.00 0.00 0.00 0.00 0.00 0.00 0.00 0.00 0.00 0.00 0.00 0.00 0.00 0.00 0.00 0.00 0.00 0.00 0.00 0.00 0.01 0.01 0.01 0.02 0.01 0.01 0.01 0.00 0.00 0.00 0.01 0.01 0.01 0.01 0.01 0.01 0.01 0.01 0.01 0.00 0.00 0.00 0.00 0.00 0.00 0.00 0.00 0.00 0.00
0.00 0.00 0.00 0.00 0.00 0.00 0.00 0.00 0.00 0.00 0.00 0.00 0.00 0.00 0.00 0.00 0.00 0.00 0.00 0.00 0.00 0.00 0.00 0.00 0.00 0.01 0.01 0.01 0.01 0.00 0.00 0.00 0.00 0.00 0.01 0.01 0.01 0.01 0.01 0.01 0.01 0.01 0.01 0.01 0.01 0.01 0.00 0.00 0.00 0.00 0.00 0.00 0.00 0.00
0.00 0.00 0.00 0.00 0.00 0.00 0.00 0.00 0.00 0.00 0.00 0.00 0.00 0.00 0.00 0.00 0.00 0.00 0.00 0.00 0.00 0.00 0.00 0.00 0.00 0.00 0.00 0.00 0.00 0.00 0.00 0.00 0.01 0.01 0.01 0.01 0.01 0.01 0.01 0.01 0.01 0.01 0.01 0.01 0.01 0.01 0.00 0.00 0.00 0.00 0.00 0.00 0.00 0.00
0.00 0.00 0.00 0.00 0.00 0.00 0.00 0.00 0.00 0.00 0.00 0.00 0.00 0.00 0.00 0.00 0.00 0.00 0.00 0.00 0.00 0.00 0.00 0.00 0.00 0.00 0.00 0.00 0.00 0.00 0.00 0.00 0.00 0.00 0.00 0.00 0.00 0.00 0.00 0.00 0.01 0.01 0.01 0.01 0.01 0.01 0.01 0.00 0.00 0.00 0.00 0.00 0.00 0.00
0.00 0.00 0.00 0.00 0.00 0.00 0.00 0.00 0.00 0.00 0.00 0.00 0.00 0.00 0.00 0.00 0.00 0.00 0.00 0.00 0.00 0.00 0.00 0.00 0.00 0.00 0.00 0.00 0.00 0.00 0.00 0.00 0.00 0.00 0.00 0.00 0.00 0.00 0.00 0.00 0.00 0.00 0.01 0.00 0.00 0.00 0.01 0.00 0.00 0.00 0.00 0.00 0.00 0.00
0.00 0.00 0.00 0.00 0.00 0.00 0.00 0.00 0.00 0.00 0.00 0.00 0.00 0.00 0.00 0.00 0.00 0.00 0.00 0.00 0.00 0.00 0.00 0.00 0.00 0.00 0.00 0.00 0.00 0.00 0.00 0.00 0.00 0.00 0.00 0.00 0.00 0.00 0.00 0.00 0.00 0.00 0.00 0.00 0.00 0.00 0.00 0.00 0.00 0.00 0.00 0.00 0.00 0.00
0.00 0.00 0.00 0.00 0.00 0.00 0.00 0.00 0.00 0.00 0.00 0.00 0.00 0.00 0.00 0.00 0.00 0.00 0.00 0.00 0.00 0.00 0.00 0.00 0.00 0.00 0.00 0.00 0.00 0.00 0.00 0.00 0.00 0.00 0.00 0.00 0.00 0.00 0.00 0.00 0.00 0.00 0.00 0.00 0.00 0.00 0.00 0.00 0.00 0.00 0.00 0.00 0.00 0.00
0.00 0.00 0.00 0.00 0.00 0.00 0.00 0.00 0.00 0.00 0.00 0.00 0.00 0.00 0.00 0.00 0.00 0.00 0.00 0.00 0.00 0.00 0.00 0.00 0.00 0.00 0.00 0.00 0.00 0.00 0.00 0.00 0.00 0.00 0.00 0.00 0.00 0.00 0.00 0.00 0.00 0.00 0.00 0.00 0.00 0.00 0.00 0.00 0.00 0.00 0.00 0.00 0.00 0.00
0.00 0.00 0.00 0.00 0.00 0.00 0.00 0.00 0.00 0.00 0.00 0.00 0.00 0.00 0.00 0.00 0.00 0.00 0.00 0.00 0.00 0.00 0.00 0.00 0.00 0.00 0.00 0.00 0.00 0.00 0.00 0.00 0.00 0.00 0.00 0.00 0.00 0.00 0.00 0.00 0.00 0.00 0.00 0.00 0.00 0.00 0.00 0.00 0.00 0.00 0.00 0.00 0.00 0.00
0.00 0.00 0.00 0.00 0.00 0.00 0.00 0.00 0.00 0.00 0.00 0.00 0.00 0.00 0.00 0.00 0.00 0.00 0.00 0.00 0.00 0.00 0.00 0.00 0.00 0.00 0.00 0.00 0.00 0.00 0.00 0.00 0.00 0.00 0.00 0.00 0.00 0.00 0.00 0.00 0.00 0.00 0.00 0.00 0.00 0.00 0.00 0.00 0.00 0.00 0.00 0.00 0.00 0.00
0.00 0.00 0.00 0.00 0.00 0.00 0.00 0.00 0.00 0.00 0.00 0.00 0.00 0.00 0.00 0.00 0.00 0.00 0.00 0.00 0.00 0.00 0.00 0.00 0.00 0.00 0.00 0.00 0.00 0.00 0.00 0.00 0.00 0.00 0.00 0.00 0.00 0.00 0.00 0.00 0.00 0.00 0.00 0.00 0.00 0.00 0.00 0.00 0.00 0.00 0.00 0.00 0.00 0.00
0.00 0.00 0.00 0.00 0.00 0.00 0.00 0.00 0.00 0.00 0.00 0.00 0.00 0.00 0.00 0.00 0.00 0.00 0.00 0.00 0.00 0.00 0.00 0.00 0.00 0.00 0.00 0.00 0.00 0.00 0.00 0.00 0.00 0.00 0.00 0.00 0.00 0.00 0.00 0.00 0.00 0.00 0.00 0.00 0.00 0.00 0.00 0.00 0.00 0.00 0.00 0.00 0.00 0.00
0.00 0.00 0.00 0.00 0.00 0.00 0.00 0.00 0.00 0.00 0.00 0.00 0.00 0.00 0.00 0.00 0.00 0.00 0.00 0.00 0.00 0.00 0.00 0.00 0.00 0.00 0.00 0.00 0.00 0.00 0.00 0.00 0.00 0.00 0.00 0.00 0.00 0.00 0.00 0.00 0.00 0.00 0.00 0.00 0.00 0.00 0.00 0.00 0.00 0.00 0.00 0.00 0.00 0.00
0.00 0.00 0.00 0.00 0.00 0.00 0.00 0.00 0.00 0.00 0.00 0.00 0.00 0.00 0.00 0.00 0.00 0.00 0.00 0.00 0.00 0.00 0.00 0.00 0.00 0.00 0.00 0.00 0.00 0.00 0.00 0.00 0.00 0.00 0.00 0.00 0.00 0.00 0.00 0.00 0.00 0.00 0.00 0.00 0.01 0.01 0.01 0.01 0.00 0.00 0.00 0.00 0.00 0.00
0.00 0.00 0.00 0.00 0.00 0.00 0.00 0.00 0.00 0.00 0.00 0.00 0.00 0.00 0.00 0.00 0.00 0.00 0.00 0.00 0.00 0.00 0.00 0.00 0.00 0.00 0.00 0.00 0.00 0.00 0.00 0.00 0.00 0.00 0.00 0.00 0.00 0.00 0.00 0.00 0.00 0.00 0.00 0.00 0.00 0.01 0.02 0.02 0.02 0.03 0.04 0.02 0.00 0.00
0.00 0.00 0.00 0.00 0.00 0.00 0.00 0.00 0.00 0.00 0.00 0.00 0.00 0.00 0.00 0.00 0.00 0.00 0.00 0.00 0.00 0.00 0.00 0.00 0.00 0.00 0.00 0.00 0.00 0.00 0.00 0.00 0.00 0.00 0.00 0.00 0.00 0.00 0.00 0.00 0.00 0.00 0.00 0.00 0.00 0.00 0.00 0.01 0.00 0.00 0.00 0.00 0.00 0.00
0.00 0.00 0.00 0.00 0.00 0.00 0.00 0.00 0.00 0.00 0.00 0.00 0.00 0.00 0.00 0.00 0.00 0.00 0.00 0.00 0.00 0.00 0.00 0.00 0.00 0.00 0.00 0.00 0.00 0.00 0.00 0.00 0.00 0.00 0.00 0.00 0.00 0.00 0.00 0.00 0.00 0.00 0.00 0.00 0.00 0.00 0.00 0.00 0.00 0.00 0.00 0.00 0.00 0.00
0.00 0.00 0.00 0.00 0.00 0.00 0.00 0.00 0.00 0.00 0.00 0.00 0.00 0.00 0.00 0.00 0.00 0.00 0.00 0.00 0.00 0.00 0.00 0.00 0.00 0.00 0.00 0.00 0.00 0.00 0.00 0.00 0.00 0.00 0.00 0.01 0.01 0.00 0.01 0.01 0.00 0.01 0.00 0.00 0.00 0.00 0.00 0.00 0.00 0.00 0.00 0.00 0.00 0.00
0.00 0.00 0.00 0.00 0.00 0.00 0.00 0.00 0.00 0.00 0.00 0.00 0.00 0.00 0.00 0.00 0.00 0.00 0.00 0.00 0.00 0.00 0.00 0.00 0.00 0.00 0.00 0.00 0.00 0.00 0.00 0.00 0.00 0.01 0.01 0.02 0.02 0.02 0.02 0.03 0.03 0.01 0.01 0.00 0.00 0.00 0.00 0.00 0.00 0.00 0.00 0.00 0.00 0.00
MSLP
1024.50 1024.64 1024.70 1024.60 1024.48 1024.48 1024.32 1024.21 1024.21 1023.86 1023.59 1023.26 1023.01 1022.74 1022.82 1022.51 1022.12 1022.22 1022.39 1022.31 1022.72 1022.74 1022.07 1021.92 1021.92 1022.06 1021.85 1021.79 1021.61 1021.04 1021.24 1021.41 1021.23 1021.33 1021.18 1020.71 1020.47 1019.96 1019.51 1018.65 1018.21 1018.13 1017.68 1017.43 1017.47 1018.01 1018.83 1018.74 1017.84 1018.96 1021.33 1020.53 1020.60 1020.28
1024.26 1024.44 1024.52 1024.54 1024.53 1024.35 1024.16 1024.10 1024.04 1023.77 1023.38 1023.02 1022.89 1022.71 1022.54 1022.32 1021.98 1021.86 1021.87 1021.80 1022.01 1022.42 1021.69 1021.27 1021.01 1020.79 1020.95 1021.11 1021.34 1021.15 1021.40 1021.39 1021.16 1021.11 1021.12 1020.86 1020.78 1020.58 1020.40 1020.04 1019.10 1019.49 1019.88 1019.56 1019.79 1020.26 1021.16 1021.90 1022.29 1023.13 1023.10 1022.57 1022.05 1021.79
1024.01 1024.27 1024.36 1024.39 1024.29 1024.12 1023.94 1023.89 1023.77 1023.53 1023.17 1022.82 1022.53 1022.18 1022.02 1021.86 1021.65 1021.52 1021.60 1021.98 1022.19 1022.31 1021.41 1021.35 1020.82 1020.88 1020.89 1021.16 1021.04 1021.33 1021.48 1021.36 1021.41 1021.21 1021.01 1020.83 1020.63 1020.49 1020.76 1020.70 1020.77 1021.14 1021.52 1021.14 1021.45 1022.45 1022.91 1023.59 1023.93 1024.26 1024.21 1023.88 1023.39 1022.85
1023.92 1023.95 1024.14 1024.30 1024.07 1023.91 1023.86 1023.78 1023.45 1023.18 1022.78 1022.36 1022.21 1022.01 1021.65 1021.42 1021.23 1021.07 1021.54 1021.59 1021.92 1021.95 1022.08 1021.37 1021.15 1021.34 1021.43 1021.31 1021.11 1021.28 1021.51 1021.56 1021.66 1021.63 1021.49 1021.07 1020.91 1020.50 1020.78 1021.70 1023.41 1025.28 1024.49 1024.29 1023.65 1024.02 1024.06 1024.14 1024.91 1025.22 1024.88 1024.47 1024.02 1023.65
1023.64 1023.76 1023.96 1024.03 1023.85 1023.66 1023.58 1023.59 1023.37 1022.98 1022.54 1022.24 1021.92 1021.64 1021.21 1020.83 1020.53 1020.89 1021.46 1021.78 1021.71 1021.96 1022.00 1021.69 1021.61 1022.05 1021.91 1021.89 1021.86 1021.90 1022.09 1022.31 1022.31 1022.23 1022.11 1021.62 1021.08 1021.07 1021.90 1023.96 1026.52 1027.61 1027.74 1027.48 1026.78 1027.17 1027.45 1026.30 1026.16 1026.25 1025.79 1025.41 1024.82 1023.92
1023.32 1023.53 1023.71 1023.72 1023.58 1023.42 1023.37 1023.28 1023.22 1022.70 1022.05 1021.81 1021.56 1021.28 1020.79 1020.41 1020.11 1020.79 1021.74 1022.04 1021.83 1021.89 1022.35 1022.60 1022.62 1022.58 1022.34 1022.19 1022.10 1022.25 1022.47 1022.57 1022.75 1022.90 1022.58 1021.93 1022.03 1022.41 1024.26 1026.57 1028.47 1028.97 1029.10 1029.03 1028.78 1028.37 1028.00 1027.56 1027.14 1026.99 1026.55 1025.95 1025.36 1024.50
1023.01 1023.32 1023.38 1023.38 1023.24 1023.14 1023.21 1023.11 1022.77 1022.27 1021.84 1021.53 1021.24 1020.90 1020.69 1020.65 1020.88 1021.48 1022.20 1022.30 1021.84 1021.98 1022.73 1023.27 1023.13 1023.02 1022.99 1022.76 1022.58 1022.77 1022.41 1022.58 1022.82 1023.00 1022.84 1022.88 1023.83 1024.65 1026.64 1028.51 1029.40 1029.66 1029.74 1029.69 1029.47 1028.89 1028.31 1028.17 1028.00 1027.44 1026.94 1026.25 1025.54 1024.80
1022.74 1023.03 1023.10 1023.04 1022.94 1022.93 1023.03 1022.76 1022.31 1021.95 1021.62 1021.29 1021.05 1020.80 1021.04 1021.15 1021.55 1021.97 1022.46 1022.35 1022.17 1022.51 1023.27 1023.99 1024.24 1023.70 1023.44 1023.56 1023.55 1023.23 1023.28 1023.20 1022.99 1023.03 1023.11 1024.22 1025.72 1027.08 1029.22 1030.20 1030.40 1030.36 1030.14 1030.00 1029.83 1029.65 1029.53 1028.93 1028.25 1027.67 1027.09 1026.38 1025.68 1025.03
1022.37 1022.69 1022.79 1022.72 1022.68 1022.75 1022.69 1022.37 1021.97 1021.66 1021.38 1021.09 1021.06 1021.18 1021.71 1022.27 1022.54 1022.64 1022.29 1022.29 1022.36 1022.99 1023.76 1024.69 1025.11 1024.85 1023.90 1024.28 1024.17 1023.73 1023.76 1024.14 1023.48 1023.70 1024.24 1025.46 1027.84 1029.91 1031.15 1031.31 1031.21 1031.08 1030.99 1030.66 1030.18 1029.84 1029.50 1029.08 1028.60 1028.06 1027.50 1026.87 1026.38 1025.75
1022.04 1022.28 1022.38 1022.45 1022.47 1022.36 1022.31 1022.01 1021.61 1021.38 1021.21 1021.21 1021.57 1022.08 1022.84 1023.00 1022.66 1022.54 1023.00 1023.25 1023.64 1024.69 1024.61 1025.51 1025.52 1025.43 1025.21 1025.03 1024.67 1024.80 1024.68 1024.67 1024.43 1024.39 1024.94 1027.05 1029.77 1031.46 1032.15 1032.09 1031.98 1031.70 1031.36 1031.03 1030.62 1030.15 1029.92 1029.59 1029.23 1028.74 1028.29 1027.82 1027.29 1026.70
1021.77 1021.90 1021.97 1022.13 1022.16 1022.08 1022.01 1021.67 1021.48 1021.42 1021.41 1021.99 1022.60 1022.80 1022.97 1022.92 1022.97 1023.94 1024.72 1025.50 1025.95 1026.33 1025.96 1026.12 1026.15 1026.24 1025.43 1025.86 1025.53 1025.29 1025.53 1025.46 1025.56 1025.29 1026.06 1028.68 1031.12 1032.53 1032.85 1032.78 1032.59 1032.29 1031.95 1031.63 1031.47 1031.21 1030.93 1030.64 1030.25 1029.70 1029.08 1028.60 1028.05 1027.48
1021.42 1021.57 1021.63 1021.79 1021.99 1021.91 1021.75 1021.55 1021.48 1021.80 1021.97 1022.08 1022.28 1022.84 1023.34 1024.18 1024.84 1025.71 1026.90 1027.24 1027.19 1027.34 1027.15 1026.90 1026.81 1026.28 1025.85 1025.73 1025.85 1025.89 1026.10 1026.28 1026.19 1026.22 1027.72 1030.55 1032.67 1033.35 1033.46 1033.32 1033.03 1032.81 1032.55 1032.25 1032.00 1031.75 1031.44 1031.15 1030.89 1030.52 1030.04 1029.44 1028.92 1028.37
1021.15 1021.34 1021.47 1021.64 1021.85 1021.69 1021.63 1021.39 1021.36 1021.35 1021.87 1022.17 1022.64 1023.69 1024.48 1025.65 1026.74 1027.24 1028.08 1028.49 1028.55 1028.44 1028.78 1028.51 1027.88 1026.84 1026.09 1026.00 1026.21 1026.55 1026.76 1026.77 1026.62 1027.93 1030.29 1032.48 1033.40 1033.75 1033.81 1033.69 1033.35 1033.12 1032.96 1032.74 1032.48 1032.22 1031.98 1031.73 1031.40 1031.16 1030.79 1030.32 1029.81 1029.26
1020.95 1021.16 1021.26 1021.59 1021.58 1021.67 1021.46 1021.28 1021.19 1021.40 1022.01 1022.85 1023.78 1025.14 1025.79 1026.65 1027.45 1028.03 1028.64 1029.07 1029.55 1029.69 1029.78 1029.63 1028.92 1027.83 1026.79 1026.57 1026.96 1027.28 1027.16 1027.50 1028.54 1030.21 1031.90 1033.23 1033.80 1034.01 1033.96 1033.83 1033.60 1033.38 1033.25 1033.17 1032.99 1032.73 1032.52 1032.35 1032.12 1031.84 1031.51 1031.13 1030.66 1030.16
1020.75 1020.92 1021.09 1021.41 1021.54 1021.55 1021.35 1021.21 1021.17 1021.60 1022.36 1023.63 1024.63 1025.89 1026.80 1027.28 1028.31 1029.29 1030.04 1030.54 1031.06 1031.06 1031.17 1030.80 1030.08 1029.34 1028.48 1028.12 1028.07 1028.45 1028.83 1030.15 1031.41 1032.28 1033.24 1033.89 1034.21 1034.31 1034.13 1033.83 1033.68 1033.54 1033.38 1033.29 1033.27 1033.13 1032.96 1032.82 1032.68 1032.47 1032.14 1031.77 1031.30 1030.85
1020.59 1020.92 1021.30 1021.40 1021.47 1021.45 1021.48 1021.51 1021.82 1022.28 1023.33 1024.65 1025.76 1026.85 1027.26 1028.35 1029.99 1030.93 1031.67 1032.27 1032.58 1032.57 1032.47 1032.33 1031.75 1030.73 1030.54 1030.42 1030.55 1031.35 1032.17 1032.59 1033.36 1033.77 1034.12 1034.40 1034.66 1034.74 1034.55 1034.19 1033.86 1033.65 1033.49 1033.41 1033.40 1033.41 1033.35 1033.28 1033.19 1033.06 1032.59 1032.19 1031.83 1031.42
1020.48 1021.04 1021.15 1021.30 1021.38 1021.60 1021.64 1022.08 1022.61 1024.20 1024.89 1026.21 1027.26 1027.54 1028.29 1029.46 1030.76 1032.12 1033.05 1033.55 1033.52 1033.75 1034.06 1033.65 1033.43 1032.28 1031.98 1032.42 1033.29 1033.68 1034.34 1034.94 1035.12 1034.95 1034.93 1035.02 1035.20 1035.13 1034.81 1034.48 1034.20 1033.93 1033.66 1033.55 1033.50 1033.48 1033.58 1033.54 1033.31 1033.06 1032.90 1032.63 1032.24 1031.87
1020.74 1021.06 1021.04 1021.12 1021.46 1021.81 1022.71 1023.36 1024.36 1025.49 1026.78 1027.60 1028.27 1029.08 1029.82 1030.89 1032.03 1033.34 1034.15 1034.48 1034.63 1034.67 1035.00 1034.62 1034.40 1034.30 1034.55 1034.62 1035.16 1035.65 1036.10 1036.42 1036.36 1036.25 1035.85 1035.63 1035.59 1035.51 1035.20 1034.84 1034.53 1034.23 1033.98 1033.84 1033.72 1033.65 1033.72 1033.71 1033.55 1033.40 1033.09 1032.79 1032.49 1032.12
1020.72 1021.00 1020.97 1021.06 1021.36 1022.23 1023.94 1025.12 1025.48 1026.81 1027.90 1028.35 1029.29 1030.20 1031.21 1032.43 1033.53 1034.20 1034.86 1035.17 1035.36 1035.39 1035.62 1036.09 1036.67 1036.68 1036.48 1036.76 1036.92 1037.12 1037.65 1037.83 1037.87 1037.39 1036.88 1036.52 1036.39 1036.25 1035.79 1035.26 1034.95 1034.65 1034.31 1034.21 1034.08 1033.95 1033.91 1033.87 1033.80 1033.63 1033.33 1033.00 1032.92 1032.62
1020.83 1021.12 1021.26 1021.40 1021.32 1023.04 1025.28 1026.60 1026.52 1027.39 1028.75 1029.36 1030.23 1031.58 1032.71 1033.77 1034.79 1035.57 1036.20 1036.73 1036.93 1037.62 1037.99 1038.46 1038.09 1037.92 1037.57 1038.14 1038.17 1038.36 1038.60 1038.57 1038.92 1038.67 1037.85 1037.29 1037.18 1036.96 1036.60 1036.16 1035.70 1035.25 1034.80 1034.58 1034.47 1033.98 1034.33 1034.15 1033.93 1033.73 1033.46 1033.15 1033.15 1032.87
1021.01 1021.68 1021.80 1021.93 1023.55 1024.67 1026.56 1027.71 1028.17 1028.65 1029.26 1030.19 1031.59 1032.56 1034.11 1035.00 1036.04 1037.06 1037.88 1037.97 1038.63 1039.69 1039.58 1039.22 1038.94 1038.63 1038.23 1038.61 1038.81 1038.94 1039.00 1039.19 1039.72 1039.58 1038.65 1038.06 1037.70 1037.49 1037.10 1036.54 1036.21 1035.72 1035.46 1035.37 1035.30 1035.06 1034.90 1034.79 1034.34 1033.98 1033.77 1033.52 1033.17 1033.05
1021.79 1021.86 1022.57 1023.12 1024.68 1026.22 1027.64 1028.75 1029.03 1029.55 1030.37 1031.77 1032.82 1034.02 1035.71 1036.85 1037.65 1038.17 1038.53 1038.78 1039.67 1039.16 1039.09 1038.96 1039.04 1039.02 1039.08 1039.16 1039.19 1038.93 1039.07 1039.39 1039.48 1039.44 1038.48 1038.21 1038.37 1038.08 1037.57 1037.22 1036.94 1036.57 1036.18 1035.88 1035.72 1035.66 1035.29 1034.78 1034.27 1033.90 1033.87 1033.45 1033.37 1033.10
1022.10 1022.52 1023.96 1024.75 1026.01 1027.19 1029.33 1029.35 1029.95 1030.90 1031.93 1033.34 1034.47 1035.67 1036.91 1037.64 1038.07 1038.45 1039.09 1039.52 1039.27 1038.52 1038.46 1038.66 1038.69 1038.65 1038.82 1038.76 1038.77 1038.88 1039.17 1039.53 1039.81 1039.47 1039.29 1038.82 1038.43 1037.98 1037.57 1037.20 1037.08 1037.19 1036.66 1036.10 1035.77 1035.60 1035.32 1034.58 1034.49 1033.96 1033.99 1033.72 1033.39 1032.94
1023.01 1024.69 1026.06 1026.78 1027.61 1029.15 1029.92 1030.68 1031.28 1032.13 1033.13 1034.38 1035.73 1036.84 1037.71 1038.19 1038.29 1038.67 1039.44 1039.50 1038.77 1038.47 1038.56 1038.77 1038.75 1038.83 1038.90 1038.94 1038.93 1039.07 1039.15 1039.24 1039.40 1039.11 1038.79 1038.95 1038.55 1037.87 1037.40 1037.13 1036.76 1036.56 1036.42 1035.95 1035.86 1035.50 1035.13 1034.76 1034.13 1034.14 1033.73 1033.48 1033.09 1032.68
1024.34 1027.78 1028.25 1028.89 1029.57 1030.01 1030.85 1031.80 1032.54 1033.02 1034.29 1035.73 1036.66 1037.48 1038.16 1038.70 1038.92 1039.36 1039.40 1038.66 1038.53 1038.58 1038.58 1038.57 1038.61 1038.70 1039.11 1038.98 1038.70 1039.01 1038.89 1039.25 1039.57 1039.26 1038.33 1038.25 1038.04 1037.70 1037.09 1036.67 1036.30 1035.90 1035.43 1035.83 1035.51 1035.09 1034.64 1034.31 1033.97 1033.63 1033.22 1032.91 1032.53 1031.82
1025.82 1028.95 1029.61 1029.69 1030.19 1030.47 1031.16 1032.23 1032.82 1033.79 1034.81 1036.05 1036.92 1037.85 1038.26 1038.76 1039.27 1038.71 1038.13 1037.72 1037.95 1038.09 1038.16 1038.11 1038.36 1038.97 1038.81 1038.48 1038.55 1038.70 1038.75 1038.74 1039.28 1038.94 1037.81 1037.48 1037.51 1037.59 1037.30 1036.87 1036.28 1035.36 1034.77 1034.65 1034.91 1034.58 1034.12 1033.68 1033.31 1032.82 1032.39 1031.68 1031.07 1030.78
1027.34 1029.58 1030.55 1030.93 1031.08 1031.58 1032.48 1033.16 1033.78 1034.34 1035.15 1036.01 1036.85 1037.89 1038.46 1038.55 1038.11 1037.44 1037.06 1037.29 1037.38 1037.34 1037.08 1037.15 1037.63 1038.17 1038.10 1038.23 1038.00 1037.94 1038.01 1038.24 1038.23 1037.53 1036.75 1036.60 1036.49 1036.34 1036.39 1036.19 1035.30 1034.75 1034.60 1034.00 1033.67 1033.57 1033.22 1032.69 1032.17 1031.65 1031.14 1030.57 1030.29 1030.16
1028.95 1029.84 1030.63 1031.74 1032.20 1032.94 1033.77 1034.63 1035.11 1035.45 1036.01 1036.49 1036.71 1037.58 1037.63 1037.46 1037.15 1036.77 1037.01 1037.14 1037.35 1037.46 1037.58 1037.51 1037.44 1037.54 1037.72 1037.77 1037.71 1037.95 1037.73 1037.49 1037.18 1036.47 1035.81 1035.59 1035.60 1035.39 1035.37 1035.03 1034.55 1033.27 1032.52 1032.09 1031.66 1031.44 1031.34 1031.12 1030.65 1030.16 1029.64 1029.38 1029.18 1028.94
1030.49 1031.00 1031.44 1033.07 1033.77 1034.52 1035.25 1035.94 1036.33 1036.68 1036.99 1037.10 1037.12 1037.27 1036.80 1036.88 1036.86 1036.77 1036.91 1037.20 1037.47 1037.95 1038.33 1038.35 1037.90 1037.66 1037.47 1037.41 1037.46 1037.43 1037.39 1037.65 1037.36 1036.93 1036.37 1035.97 1035.45 1034.91 1034.70 1034.16 1033.36 1032.71 1032.27 1031.77 1030.57 1029.66 1029.26 1028.78 1028.44 1028.07 1028.03 1028.36 1028.41 1028.52
1031.82 1032.15 1032.68 1033.94 1034.94 1036.20 1037.09 1037.60 1037.97 1038.10 1037.85 1037.68 1037.55 1037.19 1037.14 1037.05 1036.73 1036.62 1037.02 1037.62 1038.09 1038.43 1038.24 1038.16 1037.83 1037.80 1038.17 1038.37 1037.96 1037.03 1036.21 1035.98 1036.35 1036.59 1036.15 1035.42 1034.76 1034.07 1033.57 1032.89 1032.17 1031.57 1031.18 1030.83 1030.20 1029.49 1028.81 1028.31 1028.24 1028.26 1028.33 1028.24 1028.19 1028.33
1032.91 1033.17 1034.05 1035.20 1036.46 1037.50 1038.25 1038.61 1038.60 1038.48 1038.55 1038.44 1038.28 1038.23 1038.00 1037.47 1036.54 1036.40 1036.91 1037.21 1037.80 1038.27 1038.07 1038.04 1037.54 1037.45 1037.70 1037.50 1037.59 1036.82 1036.06 1035.38 1035.16 1035.03 1034.79 1034.28 1033.68 1033.06 1032.14 1031.30 1030.80 1030.48 1030.16 1029.84 1029.48 1029.10 1028.73 1028.42 1028.27 1028.20 1028.05 1027.92 1027.82 1027.83
1033.96 1034.77 1035.21 1036.73 1037.80 1038.45 1038.91 1039.15 1039.27 1039.06 1039.07 1038.93 1038.99 1038.61 1038.03 1037.60 1037.17 1036.44 1036.28 1037.01 1037.62 1037.82 1037.15 1036.98 1037.28 1036.84 1036.35 1036.05 1035.89 1035.67 1035.19 1034.75 1034.31 1033.83 1033.43 1032.64 1031.99 1031.37 1030.42 1029.80 1029.43 1029.15 1028.93 1028.72 1028.52 1028.32 1028.12 1028.00 1027.86 1027.71 1027.57 1027.42 1027.33 1027.29
1035.48 1035.76 1036.49 1037.48 1038.55 1039.06 1039.21 1039.15 1039.15 1039.14 1039.03 1039.08 1038.79 1038.63 1038.48 1038.18 1037.44 1036.27 1036.02 1036.14 1036.20 1036.15 1036.30 1036.17 1035.80 1035.55 1035.26 1035.16 1034.93 1034.45 1033.35 1033.66 1033.37 1031.69 1030.83 1030.25 1029.29 1028.39 1028.05 1027.92 1027.58 1027.80 1027.84 1027.82 1027.74 1027.58 1027.51 1027.46 1027.34 1027.19 1027.08 1026.98 1026.88 1026.82
Thickness
5546 5541 5536 5532 5528 5524 5520 5514 5508 5504 5498 5494 5488 5481 5469 5461 5455 5447 5434 5426 5412 5401 5392 5377 5363 5347 5339 5325 5321 5308 5312 5291 5281 5278 5288 5287 5308 5296 5305 5306 5324 5310 5324 5318 5320 5324 5327 5291 5315 5319 5274 5282 5281 5282
5540 5535 5530 5525 5520 5517 5514 5508 5502 5497 5493 5489 5481 5474 5465 5456 5449 5442 5434 5425 5410 5395 5387 5374 5361 5352 5339 5327 5318 5314 5306 5289 5297 5296 5287 5292 5283 5258 5275 5289 5289 5304 5298 5313 5310 5301 5270 5259 5257 5251 5251 5257 5263 5263
5533 5529 5524 5519 5515 5512 5508 5502 5496 5491 5487 5482 5476 5470 5462 5452 5445 5439 5430 5418 5404 5390 5386 5369 5356 5346 5332 5321 5314 5311 5292 5288 5288 5286 5288 5277 5285 5276 5272 5273 5283 5272 5252 5283 5285 5251 5249 5241 5243 5237 5237 5240 5245 5249
5526 5523 5517 5511 5508 5505 5500 5494 5490 5486 5482 5478 5471 5464 5458 5450 5443 5437 5426 5414 5399 5386 5377 5363 5353 5340 5326 5318 5312 5304 5296 5289 5283 5279 5279 5278 5277 5282 5275 5274 5244 5217 5228 5231 5259 5237 5237 5241 5228 5223 5225 5231 5234 5235
5519 5515 5510 5505 5502 5499 5494 5486 5482 5480 5476 5471 5466 5459 5453 5447 5442 5434 5420 5406 5394 5384 5373 5360 5346 5327 5318 5309 5301 5293 5282 5274 5275 5268 5259 5269 5268 5276 5258 5229 5200 5197 5195 5205 5222 5204 5198 5214 5212 5208 5211 5214 5219 5228
5513 5508 5503 5499 5495 5491 5486 5480 5475 5473 5472 5467 5460 5454 5449 5444 5438 5428 5412 5397 5385 5373 5359 5346 5326 5314 5312 5304 5298 5286 5281 5272 5268 5253 5254 5263 5260 5261 5231 5203 5192 5187 5185 5185 5190 5187 5189 5195 5198 5198 5200 5205 5209 5217
5505 5500 5496 5492 5488 5484 5477 5472 5469 5467 5465 5460 5454 5449 5442 5436 5428 5415 5401 5388 5377 5365 5352 5330 5315 5311 5297 5292 5284 5278 5280 5275 5263 5247 5249 5262 5236 5227 5206 5192 5186 5180 5177 5175 5175 5178 5185 5182 5183 5187 5192 5197 5203 5209
5497 5492 5488 5484 5480 5476 5469 5466 5463 5460 5457 5452 5447 5442 5433 5425 5414 5403 5391 5380 5370 5356 5337 5297 5304 5304 5294 5284 5280 5267 5262 5255 5253 5251 5258 5240 5216 5195 5176 5178 5173 5172 5170 5170 5169 5170 5170 5174 5179 5183 5186 5191 5197 5202
5490 5484 5480 5476 5472 5467 5461 5458 5456 5452 5449 5445 5439 5431 5422 5411 5400 5391 5382 5372 5361 5348 5312 5292 5300 5287 5287 5271 5265 5270 5257 5237 5249 5245 5244 5230 5196 5174 5170 5163 5166 5165 5163 5164 5167 5168 5169 5172 5174 5176 5179 5182 5185 5190
5481 5476 5472 5468 5463 5459 5454 5451 5448 5445 5440 5434 5426 5411 5402 5397 5391 5384 5365 5345 5333 5316 5301 5291 5283 5276 5272 5258 5256 5252 5243 5241 5232 5243 5231 5200 5183 5168 5157 5155 5156 5158 5158 5159 5160 5164 5163 5164 5165 5166 5168 5170 5173 5176
5471 5467 5464 5458 5454 5450 5446 5444 5439 5434 5429 5418 5405 5397 5395 5389 5380 5352 5333 5326 5303 5300 5302 5294 5273 5270 5263 5257 5253 5247 5219 5222 5221 5235 5225 5200 5176 5148 5150 5149 5149 5150 5150 5151 5149 5149 5149 5149 5150 5153 5157 5159 5162 5166
5461 5458 5454 5449 5444 5441 5437 5433 5429 5423 5415 5407 5401 5392 5381 5363 5346 5341 5305 5306 5303 5304 5288 5276 5264 5260 5253 5250 5241 5235 5228 5215 5217 5219 5203 5171 5145 5145 5142 5141 5143 5142 5141 5141 5140 5139 5140 5141 5140 5141 5144 5147 5149 5153
5451 5447 5443 5438 5433 5430 5426 5423 5420 5415 5407 5399 5391 5376 5363 5344 5343 5322 5312 5305 5288 5288 5260 5252 5243 5244 5247 5243 5228 5229 5225 5216 5221 5194 5167 5139 5143 5140 5136 5134 5136 5135 5133 5132 5132 5131 5130 5130 5130 5130 5131 5134 5136 5139
5439 5436 5432 5426 5423 5417 5415 5413 5409 5404 5394 5378 5364 5364 5352 5328 5319 5317 5308 5293 5278 5264 5248 5231 5226 5235 5237 5237 5218 5227 5225 5215 5210 5170 5151 5138 5133 5130 5129 5127 5125 5124 5122 5120 5120 5119 5119 5119 5118 5119 5119 5120 5122 5125
5427 5424 5422 5416 5411 5407 5405 5404 5399 5392 5380 5368 5358 5355 5331 5327 5304 5281 5268 5268 5252 5238 5222 5213 5218 5223 5219 5219 5218 5205 5201 5164 5148 5150 5138 5129 5127 5122 5120 5119 5114 5111 5110 5109 5107 5106 5106 5105 5105 5105 5105 5106 5109 5111
5416 5414 5409 5404 5399 5397 5395 5391 5386 5379 5362 5347 5335 5331 5327 5317 5284 5267 5247 5240 5227 5214 5206 5198 5193 5209 5209 5192 5189 5147 5149 5140 5139 5130 5125 5118 5113 5107 5103 5102 5101 5098 5096 5094 5092 5090 5090 5088 5088 5087 5090 5091 5093 5097
5404 5400 5396 5392 5389 5386 5382 5377 5371 5347 5341 5327 5312 5313 5302 5287 5271 5249 5230 5221 5208 5199 5200 5172 5199 5203 5177 5156 5145 5147 5130 5128 5119 5119 5113 5103 5095 5088 5085 5082 5081 5079 5078 5075 5074 5073 5071 5070 5070 5074 5073 5075 5076 5081
5390 5387 5384 5381 5378 5373 5365 5356 5341 5328 5314 5305 5309 5291 5279 5262 5248 5232 5215 5201 5197 5175 5168 5177 5156 5149 5143 5152 5143 5126 5114 5103 5101 5096 5093 5086 5077 5071 5068 5063 5060 5058 5057 5055 5054 5053 5052 5052 5054 5055 5057 5060 5060 5063
5377 5374 5372 5371 5367 5359 5345 5335 5327 5309 5299 5298 5286 5273 5260 5245 5225 5212 5199 5186 5174 5165 5161 5139 5132 5125 5135 5127 5115 5104 5092 5081 5074 5072 5071 5065 5058 5050 5047 5043 5041 5038 5038 5036 5035 5036 5035 5034 5035 5036 5038 5042 5041 5044
5364 5361 5360 5357 5356 5343 5328 5314 5309 5303 5285 5280 5272 5252 5238 5226 5205 5190 5178 5165 5154 5139 5138 5121 5122 5115 5106 5090 5083 5078 5071 5061 5051 5043 5043 5041 5032 5023 5022 5018 5019 5018 5020 5017 5017 5024 5016 5016 5017 5018 5021 5025 5022 5025
5354 5349 5346 5345 5330 5318 5301 5287 5290 5278 5272 5262 5245 5234 5215 5200 5185 5175 5161 5139 5140 5105 5114 5107 5098 5093 5082 5076 5069 5065 5055 5045 5035 5027 5019 5015 5016 5005 5002 5002 5001 5004 5003 5003 4998 4998 4997 4995 4998 5000 5000 5003 5005 5006
5339 5337 5331 5325 5311 5297 5284 5271 5273 5264 5255 5237 5225 5207 5191 5186 5168 5155 5133 5132 5106 5112 5103 5095 5088 5081 5075 5068 5061 5051 5043 5030 5019 5012 5015 5008 4994 4990 4989 4988 4986 4984 4986 4985 4982 4980 4980 4981 4985 4986 4985 4986 4987 4988
5326 5323 5310 5304 5299 5288 5265 5258 5258 5238 5242 5218 5197 5195 5174 5158 5149 5132 5122 5103 5108 5106 5098 5088 5079 5069 5066 5054 5047 5040 5027 5016 5008 4999 4992 4988 4984 4983 4979 4977 4970 4965 4967 4970 4966 4963 4963 4972 4969 4972 4969 4969 4971 4973
5310 5292 5284 5272 5272 5259 5242 5236 5226 5218 5204 5195 5183 5179 5164 5144 5130 5119 5114 5097 5101 5096 5087 5074 5066 5062 5055 5045 5037 5029 5018 5003 4992 4988 4983 4971 4972 4971 4965 4963 4959 4957 4957 4958 4954 4954 4953 4953 4958 4952 4953 4952 4954 4958
5300 5269 5262 5254 5234 5243 5233 5217 5204 5211 5194 5156 5166 5161 5143 5115 5114 5096 5105 5094 5086 5081 5071 5059 5052 5043 5038 5030 5022 5014 5002 4989 4980 4976 4975 4965 4958 4956 4960 4956 4953 4952 4951 4944 4943 4943 4943 4939 4939 4940 4941 4941 4943 4948
5283 5234 5251 5240 5226 5242 5229 5226 5208 5192 5171 5156 5143 5118 5102 5104 5106 5114 5098 5087 5078 5073 5064 5058 5048 5036 5028 5017 5007 4997 4990 4979 4968 4962 4968 4964 4955 4949 4944 4942 4941 4948 4947 4943 4937 4934 4935 4935 4934 4934 4935 4939 4947 4948
5265 5238 5216 5212 5213 5208 5200 5186 5177 5174 5159 5166 5137 5113 5100 5111 5098 5104 5084 5074 5071 5065 5058 5050 5038 5026 5018 5009 5001 4993 4983 4974 4969 4968 4967 4962 4958 4954 4948 4942 4940 4945 4943 4938 4935 4932 4932 4932 4933 4934 4935 4936 4936 4936
5222 5212 5231 5199 5192 5179 5181 5165 5160 5167 5152 5125 5125 5118 5115 5113 5110 5084 5075 5066 5056 5047 5040 5031 5023 5016 5006 4998 4991 4982 4978 4971 4968 4967 4966 4964 4961 4957 4952 4948 4946 4946 4945 4944 4942 4940 4937 4935 4934 4936 4938 4937 4937 4936
5205 5198 5200 5180 5167 5159 5151 5156 5151 5132 5119 5111 5112 5100 5087 5083 5073 5067 5064 5054 5042 5036 5027 5019 5012 5001 4995 4988 4983 4979 4973 4966 4963 4957 4947 4952 4953 4959 4955 4951 4949 4948 4946 4943 4945 4946 4946 4946 4947 4948 4946 4941 4937 4932
5186 5176 5174 5150 5165 5157 5133 5119 5109 5098 5092 5091 5086 5083 5078 5067 5062 5056 5049 5038 5031 5024 5014 5005 4997 4991 4983 4971 4971 4975 4978 4973 4965 4958 4949 4954 4953 4955 4955 4954 4953 4951 4948 4945 4944 4943 4944 4942 4941 4937 4935 4934 4932 4928
5162 5163 5157 5146 5134 5117 5103 5093 5087 5093 5075 5067 5057 5060 5058 5049 5054 5047 5038 5029 5018 5006 5001 4997 4990 4980 4974 4973 4966 4965 4975 4972 4966 4962 4959 4958 4957 4957 4959 4959 4957 4953 4950 4947 4944 4942 4939 4937 4935 4933 4931 4929 4926 4928
5151 5140 5145 5130 5109 5092 5081 5076 5067 5067 5058 5057 5052 5032 5038 5040 5040 5035 5030 5017 5005 5001 5003 4995 4982 4986 4983 4981 4978 4975 4976 4974 4971 4969 4967 4967 4966 4968 4969 4969 4967 4963 4959 4955 4951 4947 4943 4940 4938 4936 4934 4931 4928 4924
5113 5104 5094 5094 5089 5085 5073 5069 5063 5059 5046 5039 5038 5027 5021 5024 5029 5025 5019 5013 5008 5002 4997 4992 4989 4986 4985 4983 4982 4980 4980 4976 4975 4977 4979 4979 4980 4982 4981 4978 4976 4972 4967 4962 4957 4953 4949 4945 4942 4939 4935 4932 4929 4925